User: anonymous
Location: Robert Brownlee Observatory
(34.2308°N, 117.2089°W)
Time: 21:22:42
(UTC-07:00)
Language:

Cosmos 1943 - Orbit

View from above orbital plane
View from above orbital plane
View from above satellite
View from above satellite

Ground track
Ground track

The orbit data is extracted from the following two-line orbital elements,

1 19119U 88039A   14204.45871278  .00000107  00000-0  80073-4 0  1972
2 19119 071.0046 166.9934 0013089 236.7013 262.0508 14.14938283352187
Epoch (UTC): 23 July 2014 11:00:32
Eccentricity: 0.0013089
inclination: 71.0046°
perigee height: 833 km
apogee height: 852 km
right ascension of ascending node: 166.9934°
argument of perigee: 236.7013°
revolutions per day: 14.14938283
mean anomaly at epoch: 262.0508°
orbit number at epoch: 35218

The dashed part of the orbit path shows where the satellite is in the earth's shadow,  

DLR